Location: Rayville (historical)
(39.9992°N, 99.6815°W)
Time: 04:50:40
(UTC+00:00)

SJ-11-01 - Pass Details

Date: 18 February 2020
Orbit: 685 x 700 km, 98.0° (Epoch: 29 March)

Event Time Altitude Azimuth Distance (km) Brightness Sun altitude
Rises 02:00:45 0° 166° (SSE) 3,051 7.5 -20.6°
Reaches altitude 10° 02:02:59 10° 167° (SSE) 2,136 6.7 -21.0°
Maximum altitude 02:07:40 88° 255° (WSW) 695 4.2 -21.9°
Drops below altitude 10° 02:12:22 10° 347° (NNW) 2,143 7.0 -22.8°
Sets 02:14:37 0° 348° (NNW) 3,062 7.8 -23.2°
